Alexandria Esle, LA

4:34 AM CST on November 25, 2017 (GMT -0600)
Alexandria Esler Regional

Weather History for KESF - February, 2013

Change the Weather History Date:

Thursday, February 14, 2013

  Actual Average Record
Temperature  
Mean Temperature 46 °F -  
Max Temperature 62 °F 67 °F 80 °F (1989)
Min Temperature 30 °F 46 °F 11 °F (1960)
Degree Days  
Heating Degree Days 19    
Moisture  
Dew Point 34 °F    
Average Humidity 85    
Maximum Humidity 100    
Minimum Humidity 31    
Precipitation  
Precipitation 0.00 in - - ()
Sea Level Pressure  
Sea Level Pressure 30.11 in    
Wind  
Wind Speed 0 mph (SSW)    
Max Wind Speed 6 mph    
Max Gust Speed -    
Visibility 5 miles    
Events Fog    
Averages and records for this station are not official NWS values.
T = Trace of Precipitation, MM = Missing Value Source: NWS Daily Summary

Daily Weather History Graph

Daily Weather History Graph

Search for Another Location

Airport or City:

Trip Planner

Search our weather history database for the weather conditions in past years. The results will help you decide how hot, cold, wet, or windy it might be!

Date:

Astronomy

Feb. 14, 2013 Rise Set
Actual Time 6:51 AM CST 5:55 PM CST
Civil Twilight 6:26 AM CST 6:20 PM CST
Nautical Twilight 5:58 AM CST 6:49 PM CST
Astronomical Twilight 5:29 AM CST 7:17 PM CST
Moon 9:15 AM CST (2/14) 10:35 PM CST (2/14)
Length of Visible Light 11h 54m
Length of Day
11h 04m
Waxing Crescent, 22% of the Moon is Illuminated
Feb 14
Waxing Crescent
Feb 17
First Quarter
Feb 25
Full
Mar 4
Last Quarter
Mar 11
New

Hourly Weather History & Observations

Time (CST) Temp. Dew Point Humidity Pressure Visibility Wind Dir Wind Speed Gust Speed Precip Events Conditions
12:11 AM 35.6 °F 33.8 °F 93% 30.08 in 2.5 mi Calm Calm - N/A   Clear
12:19 AM 35.6 °F 33.8 °F 93% 30.08 in 8.0 mi Calm Calm - N/A   Clear
12:53 AM 36.0 °F 34.0 °F 93% 30.09 in 2.5 mi Calm Calm - N/A   Clear
1:00 AM 35.6 °F 33.8 °F 93% 30.09 in 5.0 mi Calm Calm - N/A   Clear
1:11 AM 35.6 °F 33.8 °F 93% 30.09 in 1.8 mi Calm Calm - N/A   Partly Cloudy
1:48 AM 35.6 °F 33.8 °F 93% 30.09 in 0.8 mi Calm Calm - N/A   Mist
1:53 AM 35.1 °F 34.0 °F 96% 30.09 in 0.8 mi Calm Calm - N/A   Mist
2:12 AM 35.6 °F 33.8 °F 93% 30.09 in 1.2 mi Calm Calm - N/A   Partly Cloudy
2:27 AM 35.6 °F 33.8 °F 93% 30.10 in 0.8 mi Calm Calm - N/A   Mist
2:31 AM 35.6 °F 33.8 °F 93% 30.10 in 1.2 mi Calm Calm - N/A   Partly Cloudy
2:38 AM 35.6 °F 33.8 °F 93% 30.10 in 3.0 mi Calm Calm - N/A   Clear
2:49 AM 35.6 °F 33.8 °F 93% 30.10 in 1.8 mi Calm Calm - N/A   Partly Cloudy
2:50 AM 35.6 °F 33.8 °F 93% 30.10 in 1.2 mi Calm Calm - N/A   Partly Cloudy
2:52 AM 35.6 °F 33.8 °F 93% 30.10 in 0.8 mi Calm Calm - N/A   Mist
3:02 AM 33.8 °F 32.0 °F 93% 30.10 in 1.2 mi Calm Calm - N/A   Partly Cloudy
3:10 AM 33.8 °F 32.0 °F 93% 30.10 in 0.8 mi Calm Calm - N/A   Mist
3:24 AM 35.6 °F 33.8 °F 93% 30.11 in 0.2 mi Calm Calm - N/A Fog Fog
3:34 AM 35.6 °F 33.8 °F 93% 30.11 in 1.0 mi Calm Calm - N/A   Mist
3:42 AM 33.8 °F 33.8 °F 100% 30.11 in 0.5 mi Calm Calm - N/A Fog Fog
3:50 AM 33.8 °F 33.8 °F 100% 30.11 in 2.0 mi Calm Calm - N/A   Overcast
3:53 AM 34.0 °F 33.1 °F 96% 30.11 in 5.0 mi Calm Calm - N/A   Overcast
4:07 AM 33.8 °F 32.0 °F 93% 30.11 in 1.8 mi Calm Calm - N/A   Overcast
4:14 AM 33.8 °F 32.0 °F 93% 30.11 in 0.2 mi Calm Calm - N/A Fog Fog
4:32 AM 33.8 °F 32.0 °F 93% 30.12 in 1.0 mi Calm Calm - N/A   Mist
4:53 AM 33.1 °F 32.0 °F 96% 30.12 in 1.5 mi Calm Calm - N/A   Overcast
4:59 AM 33.8 °F 30.2 °F 87% 30.12 in 3.0 mi Calm Calm - N/A   Overcast
5:25 AM 32.0 °F 30.2 °F 93% 30.12 in 6.0 mi Calm Calm - N/A   Scattered Clouds
5:33 AM 32.0 °F 30.2 °F 93% 30.11 in 6.0 mi Calm Calm - N/A   Mostly Cloudy
5:40 AM 32.0 °F 30.2 °F 93% 30.12 in 6.0 mi Calm Calm - N/A   Scattered Clouds
5:53 AM 32.0 °F 30.0 °F 92% 30.12 in 8.0 mi Calm Calm - N/A   Partly Cloudy
6:25 AM 32.0 °F 30.2 °F 93% 30.12 in 1.8 mi Calm Calm - N/A   Partly Cloudy
6:34 AM 32.0 °F 30.2 °F 93% 30.12 in 3.0 mi Calm Calm - N/A   Partly Cloudy
6:53 AM 30.9 °F 30.0 °F 96% 30.13 in 6.0 mi Calm Calm - N/A   Clear
7:53 AM 34.0 °F 33.1 °F 96% 30.15 in 10.0 mi Calm Calm - N/A   Clear
8:15 AM 37.4 °F 37.4 °F 100% 30.15 in 7.0 mi Calm Calm - N/A   Scattered Clouds
8:24 AM 39.2 °F 37.4 °F 93% 30.15 in 8.0 mi Calm Calm - N/A   Mostly Cloudy
8:38 AM 39.2 °F 39.2 °F 100% 30.16 in 10.0 mi Calm Calm - N/A   Scattered Clouds
8:53 AM 42.1 °F 39.9 °F 92% 30.16 in 10.0 mi Calm Calm - N/A   Clear
9:53 AM 50.0 °F 39.0 °F 66% 30.16 in 10.0 mi Calm Calm - N/A   Clear
10:53 AM 53.1 °F 36.0 °F 52% 30.16 in 10.0 mi West 3.5 mph - N/A   Clear
11:53 AM 55.9 °F 34.0 °F 44% 30.15 in 10.0 mi Calm Calm - N/A   Clear
12:53 PM 57.9 °F 33.1 °F 39% 30.12 in 10.0 mi SSW 5.8 mph - N/A   Clear
1:53 PM 60.1 °F 33.1 °F 36% 30.09 in 10.0 mi Calm Calm - N/A   Clear
2:53 PM 62.1 °F 30.9 °F 31% 30.08 in 10.0 mi Variable 5.8 mph - N/A   Clear
3:53 PM 62.1 °F 30.9 °F 31% 30.07 in 10.0 mi Calm Calm - N/A   Clear
4:53 PM 62.1 °F 32.0 °F 32% 30.07 in 10.0 mi Calm Calm - N/A   Clear
5:53 PM 55.0 °F 37.0 °F 51% 30.08 in 10.0 mi SE 4.6 mph - N/A   Clear
6:53 PM 46.9 °F 41.0 °F 80% 30.09 in 10.0 mi Calm Calm - N/A   Clear
7:53 PM 44.1 °F 39.9 °F 85% 30.10 in 10.0 mi Calm Calm - N/A   Clear
8:53 PM 42.1 °F 39.0 °F 89% 30.11 in 10.0 mi Calm Calm - N/A   Clear
9:53 PM 41.0 °F 39.0 °F 93% 30.12 in 10.0 mi Calm Calm - N/A   Clear
10:53 PM 39.0 °F 37.0 °F 93% 30.12 in 10.0 mi Calm Calm - N/A   Clear
11:53 PM 39.0 °F 37.0 °F 93% 30.11 in 10.0 mi Calm Calm - N/A   Clear